Meteo orario Aligudarz

Oggi, 21 Ottobre, Mercoledi

Tempo Temperatura Precipitazioni Vento Pressione Umidità
00:00 +9°C° 0 mm 1 m/s 594 mm Hg 13%
01:00 +9°C° 0 mm 1 m/s 594 mm Hg 14%
02:00 +8°C° 0 mm 1 m/s 593 mm Hg 14%
03:00 +8°C° 0 mm 1 m/s 593 mm Hg 15%
04:00 +8°C° 0 mm 1 m/s 593 mm Hg 15%
05:00 +7°C° 0 mm 1 m/s 593 mm Hg 15%
06:00 +7°C° 0 mm 1 m/s 593 mm Hg 16%
07:00 +11°C° 0 mm 1 m/s 595 mm Hg 13%
08:00 +15°C° 0 mm 1 m/s 597 mm Hg 9%
09:00 +19°C° 0 mm 1 m/s 599 mm Hg 6%
10:00 +21°C° 0 mm 1 m/s 599 mm Hg 6%
11:00 +22°C° 0 mm 1 m/s 599 mm Hg 5%
12:00 +24°C° 0 mm 1 m/s 600 mm Hg 4%
13:00 +24°C° 0 mm 2 m/s 599 mm Hg 4%
14:00 +24°C° 0 mm 2 m/s 599 mm Hg 4%
15:00 +24°C° 0 mm 3 m/s 599 mm Hg 4%
16:00 +20°C° 0 mm 2 m/s 597 mm Hg 7%
17:00 +18°C° 0 mm 1 m/s 596 mm Hg 9%
18:00 +14°C° 0 mm 1 m/s 595 mm Hg 11%
19:00 +13°C° 0 mm 1 m/s 595 mm Hg 13%
20:00 +12°C° 0 mm 1 m/s 595 mm Hg 15%
21:00 +11°C° 0 mm 1 m/s 595 mm Hg 17%
22:00 +10°C° 0 mm 1 m/s 594 mm Hg 19%
23:00 +9°C° 0 mm 1 m/s 594 mm Hg 21%

Domani, 22 Ottobre, Giovedi

Tempo Temperatura Precipitazioni Vento Pressione Umidità
00:00 +8°C° 0 mm 1 m/s 594 mm Hg 22%
01:00 +8°C° 0 mm 1 m/s 593 mm Hg 24%
02:00 +7°C° 0 mm 1 m/s 593 mm Hg 25%
03:00 +6°C° 0 mm 1 m/s 593 mm Hg 26%
04:00 +6°C° 0 mm 1 m/s 592 mm Hg 28%
05:00 +6°C° 0 mm 1 m/s 592 mm Hg 30%
06:00 +5°C° 0 mm 1 m/s 592 mm Hg 31%
07:00 +8°C° 0 mm 1 m/s 594 mm Hg 25%
08:00 +12°C° 0 mm 1 m/s 596 mm Hg 18%
09:00 +15°C° 0 mm 1 m/s 598 mm Hg 11%
10:00 +18°C° 0 mm 1 m/s 598 mm Hg 10%
11:00 +20°C° 0 mm 1 m/s 598 mm Hg 9%
12:00 +21°C° 0 mm 1 m/s 598 mm Hg 7%
13:00 +20°C° 0 mm 2 m/s 598 mm Hg 7%
14:00 +21°C° 0 mm 2 m/s 598 mm Hg 6%
15:00 +21°C° 0 mm 3 m/s 597 mm Hg 6%
16:00 +18°C° 0 mm 2 m/s 596 mm Hg 9%
17:00 +15°C° 0 mm 1 m/s 595 mm Hg 11%
18:00 +12°C° 0 mm 1 m/s 594 mm Hg 13%
19:00 +12°C° 0 mm 1 m/s 594 mm Hg 16%
20:00 +11°C° 0 mm 1 m/s 594 mm Hg 19%
21:00 +10°C° 0 mm 1 m/s 594 mm Hg 21%
22:00 +9°C° 0 mm 1 m/s 593 mm Hg 25%
23:00 +9°C° 0 mm 1 m/s 593 mm Hg 28%

Dopodomani, 23 Ottobre, Venerdi

Tempo Temperatura Precipitazioni Vento Pressione Umidità
00:00 +8°C° 0 mm 1 m/s 593 mm Hg 31%
01:00 +7°C° 0 mm 0 m/s 592 mm Hg 33%
02:00 +6°C° 0 mm 0 m/s 592 mm Hg 34%
03:00 +6°C° 0 mm 0 m/s 592 mm Hg 36%
04:00 +5°C° 0 mm 0 m/s 592 mm Hg 38%
05:00 +5°C° 0 mm 0 m/s 592 mm Hg 40%
06:00 +5°C° 0 mm 0 m/s 592 mm Hg 42%
07:00 +8°C° 0 mm 0 m/s 594 mm Hg 33%
08:00 +13°C° 0 mm 1 m/s 596 mm Hg 24%
09:00 +18°C° 0 mm 1 m/s 598 mm Hg 15%
10:00 +19°C° 0 mm 1 m/s 598 mm Hg 14%
11:00 +19°C° 0 mm 2 m/s 598 mm Hg 13%
12:00 +20°C° 0 mm 3 m/s 598 mm Hg 11%
13:00 +20°C° 0 mm 3 m/s 597 mm Hg 11%
14:00 +20°C° 0 mm 3 m/s 597 mm Hg 11%
15:00 +20°C° 0 mm 3 m/s 597 mm Hg 11%
16:00 +18°C° 0 mm 3 m/s 596 mm Hg 15%
17:00 +15°C° 0 mm 2 m/s 596 mm Hg 18%
18:00 +13°C° 0 mm 2 m/s 595 mm Hg 22%
19:00 +12°C° 0 mm 2 m/s 595 mm Hg 25%
20:00 +10°C° 0 mm 2 m/s 595 mm Hg 29%
21:00 +9°C° 0 mm 2 m/s 595 mm Hg 32%
22:00 +10°C° 0 mm 1 m/s 594 mm Hg 35%
23:00 +9°C° 0 mm 1 m/s 594 mm Hg 38%

24 Ottobre, Sabato

Tempo Temperatura Precipitazioni Vento Pressione Umidità
00:00 +8°C° 0 mm 1 m/s 594 mm Hg 40%
01:00 +8°C° 0 mm 1 m/s 594 mm Hg 42%
02:00 +7°C° 0 mm 1 m/s 593 mm Hg 44%
03:00 +7°C° 0 mm 1 m/s 593 mm Hg 46%
04:00 +6°C° 0 mm 1 m/s 593 mm Hg 47%
05:00 +6°C° 0 mm 1 m/s 593 mm Hg 47%
06:00 +6°C° 0 mm 1 m/s 593 mm Hg 47%
07:00 +9°C° 0 mm 1 m/s 595 mm Hg 39%
08:00 +12°C° 0 mm 1 m/s 596 mm Hg 30%
09:00 +15°C° 0 mm 1 m/s 598 mm Hg 22%
10:00 +18°C° 0 mm 1 m/s 598 mm Hg 19%
11:00 +19°C° 0 mm 1 m/s 599 mm Hg 17%
12:00 +21°C° 0 mm 1 m/s 599 mm Hg 14%
13:00 +22°C° 0 mm 1 m/s 599 mm Hg 14%
14:00 +21°C° 0 mm 2 m/s 599 mm Hg 13%
15:00 +21°C° 0 mm 2 m/s 599 mm Hg 13%
16:00 +18°C° 0 mm 2 m/s 598 mm Hg 18%
17:00 +16°C° 0 mm 1 m/s 597 mm Hg 23%
18:00 +13°C° 0 mm 1 m/s 596 mm Hg 28%
19:00 +12°C° 0 mm 1 m/s 596 mm Hg 29%
20:00 +12°C° 0 mm 1 m/s 596 mm Hg 31%
21:00 +11°C° 0 mm 1 m/s 596 mm Hg 32%
22:00 +11°C° 0 mm 1 m/s 595 mm Hg 34%
23:00 +10°C° 0 mm 1 m/s 595 mm Hg 37%

25 Ottobre, Domenica

Tempo Temperatura Precipitazioni Vento Pressione Umidità
00:00 +9°C° 0 mm 1 m/s 595 mm Hg 39%
01:00 +9°C° 0 mm 1 m/s 594 mm Hg 40%
02:00 +8°C° 0 mm 1 m/s 594 mm Hg 41%
03:00 +8°C° 0 mm 1 m/s 594 mm Hg 42%
04:00 +7°C° 0 mm 1 m/s 594 mm Hg 44%
05:00 +7°C° 0 mm 1 m/s 594 mm Hg 46%
06:00 +7°C° 0 mm 1 m/s 594 mm Hg 48%
07:00 +10°C° 0 mm 1 m/s 595 mm Hg 38%
08:00 +14°C° 0 mm 1 m/s 597 mm Hg 28%
09:00 +19°C° 0 mm 1 m/s 599 mm Hg 18%
10:00 +20°C° 0 mm 1 m/s 599 mm Hg 16%
11:00 +21°C° 0 mm 1 m/s 599 mm Hg 14%
12:00 +21°C° 0 mm 0 m/s 599 mm Hg 11%
13:00 +23°C° 0 mm 1 m/s 599 mm Hg 11%
14:00 +23°C° 0 mm 2 m/s 599 mm Hg 11%
15:00 +24°C° 0 mm 2 m/s 599 mm Hg 10%
16:00 +20°C° 0 mm 2 m/s 597 mm Hg 14%
17:00 +18°C° 0 mm 1 m/s 596 mm Hg 18%
18:00 +13°C° 0 mm 0 m/s 595 mm Hg 21%
19:00 +12°C° 0 mm 0 m/s 595 mm Hg 22%
20:00 +13°C° 0 mm 1 m/s 595 mm Hg 23%
21:00 +12°C° 0 mm 1 m/s 595 mm Hg 23%
22:00 +11°C° 0 mm 1 m/s 595 mm Hg 24%
23:00 +11°C° 0 mm 1 m/s 594 mm Hg 26%

26 Ottobre, Lunedi

Tempo Temperatura Precipitazioni Vento Pressione Umidità
00:00 +10°C° 0 mm 1 m/s 594 mm Hg 27%
01:00 +10°C° 0 mm 1 m/s 593 mm Hg 27%
02:00 +9°C° 0 mm 1 m/s 593 mm Hg 28%
03:00 +8°C° 0 mm 1 m/s 593 mm Hg 28%
04:00 +8°C° 0 mm 1 m/s 593 mm Hg 29%
05:00 +7°C° 0 mm 1 m/s 593 mm Hg 30%
06:00 +7°C° 0 mm 1 m/s 592 mm Hg 31%
07:00 +10°C° 0 mm 1 m/s 594 mm Hg 25%
08:00 +13°C° 0 mm 1 m/s 596 mm Hg 19%
09:00 +18°C° 0 mm 1 m/s 597 mm Hg 13%
10:00 +18°C° 0 mm 2 m/s 597 mm Hg 11%
11:00 +19°C° 0 mm 2 m/s 597 mm Hg 9%
12:00 +20°C° 0 mm 3 m/s 598 mm Hg 8%
13:00 +20°C° 0 mm 4 m/s 597 mm Hg 8%
14:00 +20°C° 0 mm 5 m/s 597 mm Hg 8%
15:00 +20°C° 0 mm 6 m/s 597 mm Hg 8%
16:00 +18°C° 0 mm 4 m/s 596 mm Hg 12%
17:00 +14°C° 0 mm 3 m/s 595 mm Hg 15%
18:00 +13°C° 0 mm 2 m/s 594 mm Hg 19%
19:00 +12°C° 0 mm 2 m/s 594 mm Hg 22%
20:00 +11°C° 0 mm 1 m/s 594 mm Hg 25%
21:00 +9°C° 0 mm 1 m/s 593 mm Hg 27%
22:00 +8°C° 0 mm 0 m/s 593 mm Hg 29%
23:00 +7°C° 0 mm 0 m/s 593 mm Hg 32%

27 Ottobre, Martedi

Tempo Temperatura Precipitazioni Vento Pressione Umidità
00:00 +7°C° 0 mm 0 m/s 592 mm Hg 34%
01:00 +6°C° 0 mm 0 m/s 592 mm Hg 35%
02:00 +6°C° 0 mm 0 m/s 592 mm Hg 37%
03:00 +5°C° 0 mm 0 m/s 592 mm Hg 38%
04:00 +5°C° 0 mm 0 m/s 592 mm Hg 40%
05:00 +5°C° 0 mm 0 m/s 592 mm Hg 41%
06:00 +4°C° 0 mm 0 m/s 592 mm Hg 43%
07:00 +8°C° 0 mm 0 m/s 594 mm Hg 35%
08:00 +11°C° 0 mm 0 m/s 595 mm Hg 26%
09:00 +15°C° 0 mm 0 m/s 597 mm Hg 17%
10:00 +16°C° 0 mm 0 m/s 597 mm Hg 15%
11:00 +17°C° 0 mm 0 m/s 597 mm Hg 14%
12:00 +18°C° 0 mm 0 m/s 598 mm Hg 12%
13:00 +21°C° 0 mm 1 m/s 597 mm Hg 11%
14:00 +20°C° 0 mm 2 m/s 597 mm Hg 11%
15:00 +20°C° 0 mm 2 m/s 597 mm Hg 11%
16:00 +18°C° 0 mm 2 m/s 596 mm Hg 14%
17:00 +15°C° 0 mm 1 m/s 595 mm Hg 18%
18:00 +12°C° 0 mm 1 m/s 594 mm Hg 21%
19:00 +12°C° 0 mm 1 m/s 594 mm Hg 23%
20:00 +10°C° 0 mm 0 m/s 594 mm Hg 25%
21:00 +9°C° 0 mm 0 m/s 594 mm Hg 26%
22:00 +9°C° 0 mm 0 m/s 594 mm Hg 28%
23:00 +8°C° 0 mm 0 m/s 594 mm Hg 30%
Mostrare altro

Abbiamo bisogno del tuo consenso

Meteoprog e i nostri fornitori di servizi possono memorizzare e accedere a dati personali come cookie, identificatori di dispositivi o altre tecnologie simili sul tuo dispositivo e possono elaborare tali dati per personalizzare i contenuti e gli annunci, nonché fornire funzionalità dei social media e analizzarne il traffico.

  • Archiviare e/o accedere alle informazioni sul tuo dispositivo

    Cookie, identificatori di dispositivi o altre informazioni possono essere memorizzati o resi accessibili sul tuo dispositivo per le finalità sopra indicate.

  • Annunci e contenuti personalizzati, misurazione di annunci e contenuti, approfondimenti sul pubblico e sviluppo di prodotti

    Gli annunci e i contenuti possono essere personalizzati in base a un profilo. È possibile aggiungere più dati per personalizzare meglio annunci e contenuti. È possibile misurare il rendimento degli annunci e dei contenuti. È possibile ricavare informazioni sul pubblico che ha visto gli annunci e i contenuti. Tali dati possono essere utilizzati per sviluppare o migliorare l'esperienza, i sistemi e il software dell'utente.

Cliccando su “Accetto”, acconsenti all'uso di cookie, identificatori di dispositivo, web beacon o altre tecnologie simili. Puoi modificare le impostazioni nel browser del tuo dispositivo.

Per determinati scopi, è possibile fare affidamento su interessi legali, piuttosto che sul consenso. Puoi approfondire questo argomento consultando la nostra Informativa sulla privacy e sui cookie.